| time (UTC) | temp F | wind direction | speed MPH | gust MPH | rain 1hr in | rain 24hr in | rain mn in | humidity % | barometer mb |
| 20260509054026 | 67 | 167 | 0.0 | 1.0 | 0.00 | 0.21 | 0.00 | 93 | 1009.2 |
| 20260509053533 | 67 | 168 | 0.0 | 1.0 | 0.00 | 0.21 | 0.00 | 93 | 1009.2 |
| 20260509053034 | 67 | 182 | 0.0 | 0.0 | 0.00 | 0.21 | 0.00 | 93 | 1009.4 |
| 20260509052535 | 67 | 197 | 0.0 | 1.0 | 0.00 | 0.21 | 0.00 | 92 | 1009.7 |
| 20260509051525 | 68 | 199 | 0.0 | 0.0 | 0.00 | 0.21 | 0.00 | 91 | 1009.9 |
| 20260509051030 | 68 | 199 | 0.0 | 0.0 | 0.00 | 0.21 | 0.00 | 91 | 1009.7 |
| 20260509050535 | 68 | 200 | 0.0 | 0.0 | 0.00 | 0.21 | 0.00 | 91 | 1009.8 |
| 20260509050036 | 68 | 200 | 0.0 | 0.0 | 0.00 | 0.21 | 0.21 | 91 | 1010.0 |
| 20260509045503 | 68 | 200 | 0.0 | 0.0 | 0.00 | 0.21 | 0.21 | 91 | 1010.0 |
| 20260509044536 | 68 | 146 | 0.0 | 0.0 | 0.00 | 0.21 | 0.21 | 91 | 1009.4 |
| 20260509044040 | 68 | 140 | 0.0 | 0.0 | 0.00 | 0.21 | 0.21 | 91 | 1009.4 |
| 20260509043457 | 68 | 140 | 0.0 | 0.0 | 0.00 | 0.21 | 0.21 | 89 | 1009.6 |
| 20260509042530 | 68 | 140 | 0.0 | 0.0 | 0.00 | 0.21 | 0.21 | 89 | 1009.5 |
| 20260509042033 | 68 | 140 | 0.0 | 0.0 | 0.00 | 0.21 | 0.21 | 89 | 1009.3 |
| 20260509041451 | 69 | 140 | 0.0 | 0.0 | 0.00 | 0.21 | 0.21 | 89 | 1009.2 |
| 20260509040954 | 69 | 140 | 0.0 | 0.0 | 0.00 | 0.21 | 0.21 | 89 | 1009.2 |
| 20260509040454 | 69 | 139 | 0.0 | 0.0 | 0.00 | 0.21 | 0.21 | 89 | 1009.3 |
| 20260509035955 | 69 | 139 | 0.0 | 0.0 | 0.00 | 0.21 | 0.21 | 89 | 1009.1 |
| 20260509034513 | 69 | 169 | 0.0 | 1.0 | 0.00 | 0.21 | 0.21 | 89 | 1008.6 |
| 20260509034013 | 69 | 129 | 0.0 | 1.0 | 0.00 | 0.21 | 0.21 | 89 | 1009.3 |
| 20260509033515 | 69 | 132 | 0.0 | 1.0 | 0.00 | 0.21 | 0.21 | 88 | 1009.3 |
| 20260509033016 | 69 | 165 | 0.0 | 1.0 | 0.00 | 0.21 | 0.21 | 88 | 1008.9 |
| 20260509032519 | 69 | 143 | 0.0 | 1.0 | 0.00 | 0.21 | 0.21 | 88 | 1008.5 |
| 20260509031510 | 69 | 154 | 0.0 | 1.0 | 0.00 | 0.21 | 0.21 | 87 | 1008.7 |
| 20260509031014 | 69 | 155 | 0.0 | 1.0 | 0.00 | 0.21 | 0.21 | 86 | 1008.8 |
| 20260509025518 | 70 | 155 | 0.0 | 0.0 | 0.00 | 0.21 | 0.21 | 85 | 1009.5 |
| 20260509024940 | 70 | 155 | 0.0 | 0.0 | 0.00 | 0.21 | 0.21 | 85 | 1009.6 |
| 20260509024442 | 70 | 155 | 0.0 | 0.0 | 0.00 | 0.21 | 0.21 | 85 | 1009.6 |
| 20260509024030 | 70 | 155 | 0.0 | 1.0 | 0.00 | 0.21 | 0.21 | 85 | 1009.5 |
| 20260509023454 | 70 | 155 | 0.0 | 1.0 | 0.00 | 0.21 | 0.21 | 85 | 1009.3 |
| 20260509022954 | 70 | 155 | 0.0 | 1.0 | 0.00 | 0.21 | 0.21 | 85 | 1009.2 |
| 20260509022024 | 70 | 155 | 0.0 | 0.0 | 0.00 | 0.21 | 0.21 | 84 | 1008.8 |
| 20260509021448 | 70 | 155 | 0.0 | 0.0 | 0.00 | 0.21 | 0.21 | 84 | 1008.7 |
| 20260509020950 | 70 | 155 | 0.0 | 0.0 | 0.00 | 0.21 | 0.21 | 83 | 1008.5 |
| 20260509015511 | 71 | 155 | 0.0 | 1.0 | 0.00 | 0.21 | 0.21 | 82 | 1008.2 |
| 20260509015014 | 71 | 155 | 0.0 | 1.0 | 0.00 | 0.21 | 0.21 | 81 | 1007.9 |
| 20260509014516 | 71 | 156 | 0.0 | 1.0 | 0.00 | 0.21 | 0.21 | 81 | 1007.8 |
| 20260509014016 | 71 | 150 | 0.0 | 1.0 | 0.00 | 0.21 | 0.21 | 81 | 1007.8 |
| 20260509013512 | 71 | 153 | 0.0 | 1.0 | 0.00 | 0.21 | 0.21 | 81 | 1008.0 |
| 20260509013015 | 72 | 153 | 0.0 | 1.0 | 0.00 | 0.21 | 0.21 | 81 | 1008.0 |
| 20260509012517 | 72 | 152 | 0.0 | 1.0 | 0.00 | 0.21 | 0.21 | 80 | 1007.9 |
| 20260509011936 | 72 | 148 | 0.0 | 1.0 | 0.00 | 0.21 | 0.21 | 80 | 1007.8 |
| 20260509011439 | 72 | 147 | 0.0 | 1.0 | 0.00 | 0.21 | 0.21 | 79 | 1007.8 |
| 20260509010941 | 72 | 149 | 0.0 | 1.0 | 0.00 | 0.21 | 0.21 | 79 | 1007.8 |
| 20260509010011 | 73 | 153 | 0.0 | 1.0 | 0.00 | 0.21 | 0.21 | 79 | 1007.8 |
| 20260509005003 | 73 | 157 | 0.0 | 1.0 | 0.00 | 0.21 | 0.21 | 78 | 1007.8 |
| 20260509004505 | 73 | 157 | 0.0 | 1.0 | 0.00 | 0.21 | 0.21 | 78 | 1007.7 |
| 20260509003450 | 73 | 154 | 0.0 | 2.0 | 0.00 | 0.21 | 0.21 | 77 | 1007.6 |
| 20260509002951 | 74 | 151 | 0.0 | 1.0 | 0.00 | 0.21 | 0.21 | 77 | 1007.4 |
| 20260509002453 | 74 | 141 | 0.0 | 6.0 | 0.00 | 0.21 | 0.21 | 77 | 1007.4 |
| 20260509001951 | 74 | 137 | 0.0 | 6.0 | 0.00 | 0.21 | 0.21 | 77 | 1007.4 |
| 20260509001449 | 74 | 144 | 0.0 | 2.0 | 0.00 | 0.21 | 0.21 | 76 | 1007.4 |
| 20260509000951 | 74 | 161 | 0.0 | 2.0 | 0.00 | 0.21 | 0.21 | 76 | 1007.3 |
| 20260509000449 | 75 | 146 | 0.0 | 2.0 | 0.00 | 0.21 | 0.21 | 76 | 1007.4 |
| 20260508235950 | 75 | 151 | 0.0 | 2.0 | 0.00 | 0.21 | 0.21 | 75 | 1007.4 |
| 20260508235012 | 76 | 157 | 0.0 | 2.0 | 0.00 | 0.21 | 0.21 | 75 | 1007.4 |
| 20260508234512 | 76 | 148 | 0.0 | 2.0 | 0.00 | 0.21 | 0.21 | 75 | 1007.4 |
| 20260508233457 | 76 | 144 | 0.0 | 4.0 | 0.00 | 0.21 | 0.21 | 74 | 1007.4 |
| 20260508233000 | 76 | 169 | 0.0 | 2.0 | 0.00 | 0.21 | 0.21 | 73 | 1007.4 |
| 20260508232457 | 76 | 138 | 0.0 | 2.0 | 0.00 | 0.21 | 0.21 | 73 | 1007.4 |
| 20260508231958 | 76 | 155 | 0.0 | 3.0 | 0.00 | 0.21 | 0.21 | 72 | 1007.5 |
| 20260508231500 | 77 | 162 | 0.0 | 3.0 | 0.00 | 0.21 | 0.21 | 72 | 1007.6 |
| 20260508231000 | 77 | 120 | 0.0 | 2.0 | 0.00 | 0.21 | 0.21 | 72 | 1007.5 |
| 20260508230457 | 77 | 169 | 0.0 | 2.0 | 0.00 | 0.21 | 0.21 | 71 | 1007.6 |
| 20260508224945 | 78 | 163 | 0.0 | 2.0 | 0.00 | 0.21 | 0.21 | 69 | 1007.6 |
| 20260508224437 | 78 | 129 | 0.0 | 2.0 | 0.00 | 0.21 | 0.21 | 68 | 1007.5 |
| 20260508223933 | 78 | 132 | 0.0 | 2.0 | 0.00 | 0.21 | 0.21 | 67 | 1007.6 |
| 20260508223428 | 78 | 126 | 0.0 | 2.0 | 0.00 | 0.21 | 0.21 | 67 | 1007.6 |
| 20260508223010 | 78 | 138 | 0.0 | 2.0 | 0.00 | 0.21 | 0.21 | 67 | 1007.7 |
| 20260508222421 | 79 | 163 | 0.0 | 2.0 | 0.00 | 0.21 | 0.21 | 66 | 1007.7 |
| 20260508221959 | 79 | 127 | 0.0 | 2.0 | 0.00 | 0.21 | 0.21 | 67 | 1007.7 |
| 20260508221451 | 79 | 140 | 0.0 | 1.0 | 0.00 | 0.21 | 0.21 | 66 | 1007.7 |
| 20260508220945 | 79 | 125 | 0.0 | 2.0 | 0.00 | 0.21 | 0.21 | 66 | 1007.6 |
| 20260508220439 | 79 | 123 | 0.0 | 2.0 | 0.00 | 0.21 | 0.21 | 66 | 1007.5 |
| 20260508215934 | 79 | 161 | 0.0 | 2.0 | 0.00 | 0.21 | 0.21 | 66 | 1007.5 |
| 20260508215431 | 79 | 121 | 0.0 | 1.0 | 0.00 | 0.21 | 0.21 | 67 | 1007.6 |
| 20260508214926 | 79 | 117 | 0.0 | 2.0 | 0.00 | 0.21 | 0.21 | 67 | 1007.5 |
| 20260508214418 | 79 | 157 | 0.0 | 2.0 | 0.00 | 0.21 | 0.21 | 66 | 1007.6 |
| 20260508213958 | 79 | 142 | 0.0 | 3.0 | 0.00 | 0.21 | 0.21 | 66 | 1007.5 |
| 20260508212926 | 79 | 150 | 0.0 | 3.0 | 0.00 | 0.21 | 0.21 | 68 | 1007.8 |
| 20260508212426 | 79 | 217 | 0.0 | 3.0 | 0.00 | 0.21 | 0.21 | 67 | 1008.0 |
| 20260508211928 | 79 | 165 | 1.0 | 8.0 | 0.00 | 0.21 | 0.21 | 66 | 1008.2 |
| 20260508211423 | 80 | 120 | 1.0 | 8.0 | 0.00 | 0.21 | 0.21 | 66 | 1008.2 |
| 20260508210920 | 80 | 144 | 1.0 | 8.0 | 0.00 | 0.21 | 0.21 | 66 | 1008.3 |
| 20260508210419 | 79 | 134 | 1.0 | 8.0 | 0.00 | 0.21 | 0.21 | 66 | 1008.4 |
| 20260508205918 | 80 | 154 | 0.0 | 7.0 | 0.00 | 0.21 | 0.21 | 65 | 1008.5 |
| 20260508205415 | 79 | 134 | 0.0 | 2.0 | 0.00 | 0.21 | 0.21 | 66 | 1008.6 |
| 20260508204914 | 79 | 138 | 0.0 | 3.0 | 0.00 | 0.21 | 0.21 | 64 | 1008.8 |
| 20260508204414 | 79 | 144 | 0.0 | 3.0 | 0.00 | 0.21 | 0.21 | 65 | 1009.1 |
| 20260508203916 | 79 | 175 | 0.0 | 3.0 | 0.00 | 0.21 | 0.21 | 66 | 1009.1 |
| 20260508203410 | 79 | 167 | 0.0 | 3.0 | 0.00 | 0.21 | 0.21 | 65 | 1009.1 |
| 20260508202952 | 79 | 167 | 0.0 | 3.0 | 0.00 | 0.21 | 0.21 | 65 | 1009.1 |
| 20260508202447 | 79 | 126 | 0.0 | 2.0 | 0.00 | 0.21 | 0.21 | 66 | 1009.2 |
| 20260508201942 | 78 | 126 | 0.0 | 2.0 | 0.00 | 0.21 | 0.21 | 66 | 1009.4 |
| 20260508201443 | 77 | 148 | 0.0 | 1.0 | 0.00 | 0.21 | 0.21 | 69 | 1009.6 |
| 20260508200942 | 76 | 143 | 0.0 | 1.0 | 0.00 | 0.21 | 0.21 | 68 | 1009.6 |
| 20260508200442 | 76 | 179 | 0.0 | 1.0 | 0.00 | 0.21 | 0.21 | 68 | 1009.8 |
| 20260508194435 | 76 | 182 | 0.0 | 2.0 | 0.00 | 0.21 | 0.21 | 67 | 1009.9 |
| 20260508193936 | 76 | 177 | 0.0 | 2.0 | 0.00 | 0.21 | 0.21 | 66 | 1010.0 |
| 20260508193432 | 77 | 121 | 0.0 | 2.0 | 0.00 | 0.21 | 0.21 | 66 | 1010.0 |
| 20260508192930 | 77 | 142 | 0.0 | 1.0 | 0.00 | 0.21 | 0.21 | 67 | 1010.0 |
| 20260508192429 | 77 | 145 | 0.0 | 4.0 | 0.00 | 0.21 | 0.21 | 66 | 1010.0 |
| 20260508191933 | 77 | 153 | 0.0 | 4.0 | 0.00 | 0.21 | 0.21 | 66 | 1009.9 |
| 20260508191434 | 77 | 150 | 0.0 | 2.0 | 0.00 | 0.21 | 0.21 | 66 | 1009.9 |
| 20260508190933 | 78 | 144 | 0.0 | 2.0 | 0.00 | 0.21 | 0.21 | 64 | 1010.0 |
| 20260508190431 | 78 | 138 | 0.0 | 8.0 | 0.00 | 0.21 | 0.21 | 65 | 1010.1 |
| 20260508185409 | 78 | 138 | 0.0 | 1.0 | 0.00 | 0.21 | 0.21 | 67 | 1010.2 |
| 20260508184911 | 78 | 126 | 0.0 | 1.0 | 0.00 | 0.21 | 0.21 | 67 | 1010.2 |
| 20260508184412 | 77 | 122 | 0.0 | 1.0 | 0.00 | 0.21 | 0.21 | 66 | 1010.2 |
| 20260508183911 | 76 | 135 | 0.0 | 2.0 | 0.00 | 0.21 | 0.21 | 68 | 1010.3 |
| 20260508183410 | 76 | 128 | 0.0 | 2.0 | 0.00 | 0.21 | 0.21 | 67 | 1010.5 |
| 20260508182910 | 76 | 180 | 0.0 | 1.0 | 0.00 | 0.21 | 0.21 | 69 | 1010.5 |
| 20260508182413 | 75 | 164 | 0.0 | 1.0 | 0.00 | 0.21 | 0.21 | 71 | 1010.7 |
| 20260508181912 | 76 | 127 | 0.0 | 1.0 | 0.00 | 0.21 | 0.21 | 68 | 1010.8 |
| 20260508181411 | 75 | 147 | 0.0 | 1.0 | 0.00 | 0.21 | 0.21 | 72 | 1010.9 |
| 20260508180356 | 74 | 140 | 0.0 | 1.0 | 0.00 | 0.21 | 0.21 | 71 | 1010.9 |
| 20260508175941 | 74 | 130 | 0.0 | 1.0 | 0.00 | 0.21 | 0.21 | 71 | 1011.2 |
| 20260508175355 | 74 | 108 | 0.0 | 1.0 | 0.00 | 0.21 | 0.21 | 74 | 1011.3 |
| 20260508174858 | 74 | 140 | 0.0 | 1.0 | 0.00 | 0.21 | 0.21 | 69 | 1011.4 |
| 20260508174440 | 75 | 140 | 0.0 | 2.0 | 0.00 | 0.21 | 0.21 | 69 | 1011.5 |
| 20260508173858 | 74 | 157 | 0.0 | 2.0 | 0.00 | 0.21 | 0.21 | 68 | 1011.7 |
| 20260508173437 | 74 | 196 | 0.0 | 1.0 | 0.00 | 0.21 | 0.21 | 68 | 1011.8 |
| 20260508172852 | 74 | 156 | 0.0 | 1.0 | 0.00 | 0.21 | 0.21 | 72 | 1011.9 |
| 20260508172354 | 73 | 176 | 0.0 | 2.0 | 0.00 | 0.21 | 0.21 | 72 | 1012.1 |
| 20260508171853 | 73 | 148 | 0.0 | 2.0 | 0.00 | 0.21 | 0.21 | 73 | 1012.0 |
| 20260508171400 | 73 | 175 | 0.0 | 1.0 | 0.00 | 0.21 | 0.21 | 75 | 1012.2 |
| 20260508170426 | 71 | 157 | 0.0 | 1.0 | 0.00 | 0.21 | 0.21 | 76 | 1012.5 |
| 20260508165927 | 71 | 153 | 0.0 | 1.0 | 0.00 | 0.21 | 0.21 | 79 | 1012.6 |
| 20260508165430 | 70 | 144 | 0.0 | 1.0 | 0.00 | 0.21 | 0.21 | 78 | 1012.7 |
| 20260508164932 | 70 | 159 | 0.0 | 1.0 | 0.00 | 0.21 | 0.21 | 79 | 1012.8 |
| 20260508163914 | 69 | 124 | 0.0 | 1.0 | 0.00 | 0.21 | 0.21 | 83 | 1013.0 |
| 20260508163412 | 68 | 153 | 0.0 | 1.0 | 0.00 | 0.21 | 0.21 | 83 | 1013.0 |
| 20260508162914 | 67 | 118 | 0.0 | 1.0 | 0.00 | 0.21 | 0.21 | 86 | 1013.0 |
| 20260508162413 | 67 | 126 | 0.0 | 1.0 | 0.00 | 0.21 | 0.21 | 87 | 1013.1 |
| 20260508161911 | 66 | 146 | 0.0 | 1.0 | 0.00 | 0.21 | 0.21 | 88 | 1013.1 |
| 20260508160938 | 65 | 149 | 0.0 | 1.0 | 0.02 | 0.21 | 0.21 | 89 | 1013.2 |
| 20260508160358 | 65 | 149 | 0.0 | 1.0 | 0.02 | 0.21 | 0.21 | 89 | 1013.2 |
| 20260508155429 | 64 | 159 | 0.0 | 1.0 | 0.02 | 0.21 | 0.21 | 88 | 1013.4 |
| 20260508154412 | 64 | 136 | 0.0 | 1.0 | 0.02 | 0.21 | 0.21 | 88 | 1013.4 |
| 20260508153911 | 64 | 135 | 0.0 | 1.0 | 0.02 | 0.21 | 0.21 | 89 | 1013.3 |
| 20260508153412 | 64 | 120 | 0.0 | 1.0 | 0.02 | 0.21 | 0.21 | 89 | 1013.3 |
| 20260508152354 | 63 | 153 | 0.0 | 1.0 | 0.02 | 0.21 | 0.21 | 89 | 1013.3 |
| 20260508151423 | 63 | 146 | 0.0 | 1.0 | 0.02 | 0.21 | 0.21 | 89 | 1013.3 |
| 20260508150921 | 64 | 146 | 0.0 | 1.0 | 0.00 | 0.19 | 0.19 | 88 | 1013.4 |
| 20260508150424 | 64 | 150 | 0.0 | 2.0 | 0.00 | 0.19 | 0.19 | 87 | 1013.4 |
| 20260508145924 | 64 | 153 | 0.0 | 3.0 | 0.00 | 0.19 | 0.19 | 89 | 1013.6 |
| 20260508145424 | 64 | 165 | 0.0 | 3.0 | 0.00 | 0.19 | 0.19 | 91 | 1013.5 |
| 20260508144923 | 64 | 140 | 0.0 | 1.0 | 0.00 | 0.19 | 0.19 | 95 | 1013.4 |
| 20260508144421 | 63 | 135 | 0.0 | 1.0 | 0.00 | 0.19 | 0.19 | 95 | 1013.5 |
| 20260508143920 | 63 | 167 | 0.0 | 1.0 | 0.00 | 0.19 | 0.19 | 95 | 1013.5 |
| 20260508143420 | 62 | 130 | 0.0 | 1.0 | 0.00 | 0.19 | 0.19 | 96 | 1013.6 |
| 20260508142919 | 62 | 130 | 0.0 | 1.0 | 0.00 | 0.19 | 0.19 | 96 | 1013.6 |
| 20260508142425 | 62 | 128 | 0.0 | 1.0 | 0.00 | 0.19 | 0.19 | 96 | 1013.6 |
| 20260508141927 | 61 | 127 | 0.0 | 0.0 | 0.00 | 0.19 | 0.19 | 96 | 1013.8 |
| 20260508141430 | 61 | 140 | 0.0 | 0.0 | 0.00 | 0.19 | 0.19 | 96 | 1013.8 |
| 20260508140928 | 61 | 141 | 0.0 | 0.0 | 0.00 | 0.19 | 0.19 | 96 | 1013.8 |
| 20260508140428 | 61 | 141 | 0.0 | 0.0 | 0.00 | 0.19 | 0.19 | 97 | 1014.2 |
| 20260508135410 | 61 | 141 | 0.0 | 0.0 | 0.02 | 0.19 | 0.19 | 97 | 1014.1 |
| 20260508134914 | 61 | 142 | 0.0 | 1.0 | 0.02 | 0.19 | 0.19 | 97 | 1014.4 |
| 20260508134413 | 61 | 142 | 0.0 | 1.0 | 0.02 | 0.19 | 0.19 | 97 | 1014.3 |
| 20260508133914 | 60 | 141 | 0.0 | 1.0 | 0.02 | 0.19 | 0.19 | 96 | 1013.8 |
| 20260508133419 | 60 | 143 | 0.0 | 0.0 | 0.02 | 0.19 | 0.19 | 96 | 1013.8 |
| 20260508132922 | 60 | 144 | 0.0 | 1.0 | 0.02 | 0.19 | 0.19 | 96 | 1013.8 |
| 20260508132422 | 60 | 148 | 0.0 | 1.0 | 0.02 | 0.19 | 0.19 | 97 | 1013.8 |
| 20260508131844 | 60 | 148 | 0.0 | 0.0 | 0.02 | 0.19 | 0.19 | 96 | 1014.3 |
| 20260508125838 | 59 | 128 | 0.0 | 1.0 | 0.03 | 0.18 | 0.18 | 96 | 1013.8 |
| 20260508125417 | 59 | 172 | 0.0 | 1.0 | 0.02 | 0.17 | 0.18 | 96 | 1014.2 |
| 20260508124917 | 59 | 175 | 0.0 | 0.0 | 0.02 | 0.17 | 0.17 | 95 | 1014.2 |
| 20260508123902 | 59 | 175 | 0.0 | 0.0 | 0.02 | 0.17 | 0.17 | 95 | 1014.3 |
| 20260508123406 | 58 | 175 | 0.0 | 1.0 | 0.02 | 0.17 | 0.17 | 95 | 1014.5 |
| 20260508122907 | 58 | 175 | 0.0 | 1.0 | 0.02 | 0.17 | 0.17 | 95 | 1014.3 |
| 20260508121855 | 58 | 175 | 0.0 | 1.0 | 0.02 | 0.17 | 0.17 | 95 | 1014.3 |
| 20260508120840 | 58 | 186 | 0.0 | 1.0 | 0.02 | 0.17 | 0.17 | 95 | 1014.5 |
| 20260508120341 | 58 | 138 | 0.0 | 1.0 | 0.02 | 0.17 | 0.17 | 95 | 1014.4 |
| 20260508115844 | 58 | 134 | 0.0 | 1.0 | 0.00 | 0.15 | 0.16 | 95 | 1013.7 |
| 20260508114831 | 58 | 154 | 0.0 | 1.0 | 0.00 | 0.15 | 0.15 | 95 | 1014.2 |
| 20260508113901 | 59 | 156 | 0.0 | 1.0 | 0.01 | 0.15 | 0.15 | 95 | 1013.5 |
| 20260508113359 | 59 | 121 | 0.0 | 1.0 | 0.01 | 0.15 | 0.15 | 95 | 1013.3 |
| 20260508112903 | 59 | 155 | 0.0 | 1.0 | 0.04 | 0.15 | 0.15 | 95 | 1013.2 |
| 20260508111412 | 59 | 146 | 0.0 | 1.0 | 0.15 | 0.15 | 0.15 | 95 | 1013.5 |
| 20260508110829 | 59 | 165 | 0.0 | 1.0 | 0.15 | 0.15 | 0.15 | 95 | 1013.8 |
| 20260508110328 | 59 | 168 | 0.0 | 1.0 | 0.15 | 0.15 | 0.15 | 95 | 1013.8 |
| 20260508105832 | 59 | 146 | 0.0 | 1.0 | 0.15 | 0.15 | 0.15 | 95 | 1014.0 |
| 20260508105331 | 59 | 138 | 0.0 | 1.0 | 0.15 | 0.15 | 0.15 | 95 | 1013.4 |
| 20260508104832 | 59 | 129 | 0.0 | 1.0 | 0.15 | 0.15 | 0.15 | 95 | 1013.0 |
| 20260508103901 | 59 | 142 | 0.0 | 1.0 | 0.14 | 0.14 | 0.15 | 95 | 1013.7 |
| 20260508102848 | 59 | 142 | 0.0 | 1.0 | 0.11 | 0.11 | 0.11 | 95 | 1013.4 |
| 20260508102349 | 58 | 137 | 0.0 | 0.0 | 0.01 | 0.01 | 0.01 | 95 | 1013.5 |
| 20260508102155 | 63 | 78 | 0.0 | 0.0 | 0.00 | 0.03 | 0.01 | 72 | 1015.1 |
| 20260508101946 | 66 | 46 | 0.0 | 4.0 | 0.00 | 0.03 | 0.01 | 69 | 1016.8 |
| 20260508101940 | 65 | 69 | 0.0 | 1.0 | 0.00 | 0.03 | 0.01 | 72 | 1016.8 |
| 20260508101401 | 58 | 137 | 0.0 | 1.0 | 0.00 | 0.00 | 0.00 | 94 | 1012.9 |
| 20260508100904 | 58 | 137 | 0.0 | 0.0 | 0.00 | 0.00 | 0.00 | 94 | 1013.2 |
| 20260508100616 | 63 | 92 | 0.0 | 1.0 | 0.00 | 0.03 | 0.01 | 74 | 1017.2 |
| 20260508100610 | 58 | 74 | 0.0 | 0.0 | 0.00 | 0.03 | 0.01 | 84 | 1016.8 |
| 20260508094857 | 58 | 136 | 0.0 | 0.0 | 0.00 | 0.00 | 0.00 | 92 | 1013.1 |
| 20260508094404 | 58 | 136 | 0.0 | 0.0 | 0.00 | 0.00 | 0.00 | 92 | 1013.3 |
| 20260508093908 | 58 | 136 | 0.0 | 1.0 | 0.00 | 0.00 | 0.00 | 92 | 1013.1 |
| 20260508093333 | 59 | 136 | 0.0 | 1.0 | 0.00 | 0.00 | 0.00 | 92 | 1012.9 |
| 20260508092840 | 59 | 136 | 0.0 | 1.0 | 0.00 | 0.00 | 0.00 | 92 | 1012.8 |
| 20260508092344 | 59 | 136 | 0.0 | 1.0 | 0.00 | 0.00 | 0.00 | 92 | 1013.0 |
| 20260508091846 | 59 | 136 | 0.0 | 1.0 | 0.00 | 0.00 | 0.00 | 92 | 1013.1 |
| 20260508091351 | 59 | 136 | 0.0 | 1.0 | 0.00 | 0.00 | 0.00 | 92 | 1013.2 |
| 20260508090850 | 59 | 153 | 0.0 | 1.0 | 0.00 | 0.00 | 0.00 | 91 | 1013.1 |
| 20260508090349 | 60 | 153 | 0.0 | 0.0 | 0.00 | 0.00 | 0.00 | 91 | 1013.5 |
| 20260508085853 | 60 | 153 | 0.0 | 1.0 | 0.00 | 0.00 | 0.00 | 91 | 1013.2 |
| 20260508085352 | 60 | 153 | 0.0 | 1.0 | 0.00 | 0.00 | 0.00 | 89 | 1013.4 |
| 20260508084854 | 60 | 153 | 0.0 | 0.0 | 0.00 | 0.00 | 0.00 | 89 | 1013.7 |
| 20260508084353 | 60 | 153 | 0.0 | 0.0 | 0.00 | 0.00 | 0.00 | 89 | 1013.5 |
| 20260508083852 | 60 | 153 | 0.0 | 0.0 | 0.00 | 0.00 | 0.00 | 89 | 1013.3 |
| 20260508083351 | 60 | 153 | 0.0 | 0.0 | 0.00 | 0.00 | 0.00 | 91 | 1013.5 |
| 20260508082853 | 60 | 154 | 0.0 | 0.0 | 0.00 | 0.00 | 0.00 | 89 | 1013.8 |
| 20260508082314 | 60 | 153 | 0.0 | 1.0 | 0.00 | 0.00 | 0.00 | 89 | 1013.8 |
| 20260508081855 | 60 | 153 | 0.0 | 1.0 | 0.00 | 0.00 | 0.00 | 89 | 1013.7 |
| 20260508081319 | 60 | 152 | 0.0 | 1.0 | 0.00 | 0.00 | 0.00 | 89 | 1013.7 |
| 20260508080338 | 60 | 163 | 0.0 | 1.0 | 0.00 | 0.00 | 0.00 | 91 | 1014.2 |
| 20260508075837 | 60 | 163 | 0.0 | 1.0 | 0.00 | 0.00 | 0.00 | 91 | 1014.4 |
| 20260508075336 | 59 | 163 | 0.0 | 1.0 | 0.00 | 0.00 | 0.00 | 92 | 1014.2 |
| 20260508074838 | 59 | 163 | 0.0 | 0.0 | 0.00 | 0.00 | 0.00 | 91 | 1014.5 |
| 20260508074339 | 59 | 163 | 0.0 | 0.0 | 0.00 | 0.00 | 0.00 | 92 | 1014.6 |
| 20260508073839 | 58 | 163 | 0.0 | 0.0 | 0.00 | 0.00 | 0.00 | 92 | 1014.3 |
| 20260508073339 | 58 | 163 | 0.0 | 0.0 | 0.00 | 0.00 | 0.00 | 92 | 1014.1 |
| 20260508072844 | 58 | 163 | 0.0 | 0.0 | 0.00 | 0.00 | 0.00 | 92 | 1014.0 |
| 20260508072346 | 58 | 163 | 0.0 | 0.0 | 0.00 | 0.00 | 0.00 | 91 | 1014.2 |
| 20260508071338 | 58 | 163 | 0.0 | 0.0 | 0.00 | 0.00 | 0.00 | 91 | 1014.3 |
| 20260508070841 | 58 | 163 | 0.0 | 0.0 | 0.00 | 0.00 | 0.00 | 91 | 1014.5 |
| 20260508070344 | 58 | 163 | 0.0 | 0.0 | 0.00 | 0.00 | 0.00 | 91 | 1014.6 |
| 20260508065849 | 58 | 163 | 0.0 | 0.0 | 0.00 | 0.00 | 0.00 | 91 | 1014.7 |
| 20260508064839 | 58 | 163 | 0.0 | 0.0 | 0.00 | 0.00 | 0.00 | 92 | 1015.0 |
| 20260508064341 | 58 | 163 | 0.0 | 0.0 | 0.00 | 0.00 | 0.00 | 92 | 1015.1 |
| 20260508063844 | 58 | 163 | 0.0 | 0.0 | 0.00 | 0.00 | 0.00 | 91 | 1015.0 |
| 20260508062832 | 58 | 163 | 0.0 | 0.0 | 0.00 | 0.00 | 0.00 | 91 | 1015.1 |
| 20260508062333 | 58 | 163 | 0.0 | 0.0 | 0.00 | 0.00 | 0.00 | 91 | 1015.0 |
| 20260508061325 | 58 | 163 | 0.0 | 0.0 | 0.00 | 0.00 | 0.00 | 91 | 1015.0 |
| 20260508060829 | 58 | 163 | 0.0 | 0.0 | 0.00 | 0.00 | 0.00 | 91 | 1015.0 |
| 20260508055818 | 58 | 163 | 0.0 | 0.0 | 0.00 | 0.00 | 0.00 | 91 | 1014.8 |
| 20260508055318 | 58 | 163 | 0.0 | 0.0 | 0.00 | 0.00 | 0.00 | 91 | 1014.9 |
| 20260508054821 | 58 | 163 | 0.0 | 0.0 | 0.00 | 0.00 | 0.00 | 89 | 1014.9 |
| 20260508054325 | 58 | 163 | 0.0 | 0.0 | 0.00 | 0.00 | 0.00 | 89 | 1015.0 |